Home   Weather   Kolonia   Past weeks

Flag for Micronesia Past Weather in Kolonia, Pohnpei, Micronesia — Yesterday and Last 2 Weeks

Now
76 °F

Sprinkles. Mostly cloudy.


Feels Like: 77 °F
Forecast: 76 / 85 °F
Wind: 3 mph from South

Location: Pohnpei

Current Time: Oct 1, 2016 at 2:23:22 AM

Latest Report: Oct 1, 2016 at 1:50 AM


Visibility: 14 mi

Pressure: 29.83 "Hg

Humidity: 94%

Dew Point: 74 °F

Location of KoloniaLocation

Past Weather in Kolonia — Graph

°F

Kolonia Temperature Yesterday

Maximum temperature yesterday: 87 °F (at 11:52 AM)
Minimum temperature yesterday: 75 °F (at 6:50 AM)
Average temperature yesterday: 80 °F

High & Low Weather Summary for the Past Weeks

 TemperatureHumidityPressure
High92 °F (Sep 19, 2:51 PM)100% (Sep 24, 10:53 PM)29.96 "Hg (Sep 24, 10:53 PM)
Low73 °F (Sep 18, 1:53 AM)59% (Sep 21, 3:50 PM)29.73 "Hg (Sep 27, 3:50 PM)
Average80 °F86%29.83 "Hg
* Reported Sep 16 12:52 AM — Oct 1 12:50 AM, Kolonia, Weather by CustomWeather, © 2016

Note: Actual official high and low records may vary slightly from our data, if they occured in-between our weather recording intervals... More about our weather records

Advertising

Kolonia Weather History for the Previous 24 Hours

Scroll right to see more
 ConditionsComfort  
Time TempWeatherWind HumidityBarometerVisibility
12:50 AM
Sat, Oct 1
76 °FSprinkles. Mostly cloudy.3 mph94%29.85 "Hg14 mi
11:54 PM
Fri, Sep 30
77 °FMostly cloudy.6 mph95%29.87 "Hg15 mi
10:53 PM78 °FOvercast.6 mph90%29.88 "Hg15 mi
9:53 PM78 °FOvercast.3 mph90%29.88 "Hg15 mi
8:51 PM79 °FOvercast.5 mph87%29.86 "Hg15 mi
7:53 PM80 °FOvercast.3 mph83%29.83 "Hg15 mi
6:53 PM81 °FMostly cloudy.3 mph88%29.82 "Hg15 mi
5:52 PM83 °FMore clouds than sun.3 mph76%29.80 "Hg15 mi
4:53 PM84 °FOvercast.3 mph63%29.79 "Hg15 mi
3:53 PM85 °FMore clouds than sun.2 mph73%29.78 "Hg15 mi
2:51 PM85 °FMore clouds than sun.3 mph70%29.78 "Hg15 mi
1:50 PM86 °FMore clouds than sun.5 mph70%29.80 "Hg15 mi
12:51 PM86 °FMore clouds than sun.3 mph60%29.83 "Hg15 mi
11:52 AM87 °FMore clouds than sun.2 mph67%29.85 "Hg15 mi
10:55 AM83 °FMore clouds than sun.2 mph79%29.86 "Hg15 mi
9:54 AM80 °FMore clouds than sun.2 mph83%29.87 "Hg15 mi
8:51 AM78 °FMostly cloudy.3 mph89%29.86 "Hg15 mi
7:51 AM77 °FCloudy.6 mph93%29.84 "Hg15 mi
6:50 AM75 °FBroken clouds.6 mph94%29.82 "Hg15 mi
5:52 AM75 °FPassing clouds.6 mph93%29.81 "Hg15 mi
4:53 AM75 °FPassing clouds.6 mph95%29.79 "Hg15 mi
3:50 AM75 °FPassing clouds.5 mph97%29.77 "Hg15 mi
2:50 AM76 °FPassing clouds.6 mph97%29.77 "Hg15 mi
Weather by CustomWeather, © 2016

See weather overviewHow to use our weather pages